Find Starlink 38274

NORAD ID: 100380 Int'l Des: 2026-190 Owner: SPXS Country: US Constellation: starlink operational

現在のビュー

3D地球を読み込み中...

About Starlink 38274

Starlink 38274 (NORAD 100380) is a starlink constellation satellite launched Aug 19, 2026 by SPXS of US. with a mass of 575.00 kg.

次回通過

Passes for default location (London). Set your location on the main map for personalized predictions.

高度履歴

Loading altitude history...

軌道要素

1 A0380U 26190K 26248.18470168 .00093392 00000-0 62009-3 0 9992
2 A0380 97.2843 101.7698 0002349 82.0501 278.1031 15.75191394 3967
Epoch: Sep 5, 2026 • Age: 10 hours

現在のステータス

高度 346.7 km
遠地点 / 近地点 N/A
速度 7.70 km/s
衛星直下点 5.00°N, 83.33°E
打ち上げ日 Aug 19, 2026
運用期間 17 days
タイプ internet

技術仕様

分類 Payload
質量 575.00 kg
乾燥質量 530.00 kg
総質量 575.00 kg
長さ 0.30 m
直径 4.10 m
スパン 29.00 m
形状 Box + pan
製造者 SPXS
バスタイプ Starlink V2MO
フェーズステータス In Orbit
所有者/国 SPXS/US

Most Searched